Salt Lake City, UT

5:46 AM MDT on May 21, 2018 (GMT -0600)
Salt Lake City International

Weather History for KSLC - December, 2012

Change the Weather History Date:

Thursday, December 13, 2012

  Actual Average Record
Temperature  
Mean Temperature 47 °F 30 °F  
Max Temperature 53 °F 38 °F 60 °F (1929)
Min Temperature 41 °F 23 °F -21 °F (1932)
Degree Days  
Heating Degree Days 18 35  
Month to date heating degree days 314 435  
Since 1 July heating degree days 1199 1653  
Cooling Degree Days 0 0  
Month to date cooling degree days 0 0  
Year to date cooling degree days 1615 1160  
Moisture  
Dew Point 22 °F    
Average Humidity 37    
Maximum Humidity 45    
Minimum Humidity 28    
Precipitation  
Precipitation 0.00 in 0.05 in 0.73 in (1994)
Month to date precipitation 0.50 0.61  
Year to date precipitation 11.78 15.30  
Snow  
Snow 0.00 in 0.40 in 7.30 in (1994)
Month to date snowfall 3.5 5.3  
Since 1 July snowfall 19.0 14.3  
Snow Depth 0.00 in    
Sea Level Pressure  
Sea Level Pressure 29.77 in    
Wind  
Wind Speed 10 mph (SSE)    
Max Wind Speed 20 mph    
Max Gust Speed 29 mph    
Visibility 10 miles    
Events      
T = Trace of Precipitation, MM = Missing Value Source: NWS Daily Summary

Daily Weather History Graph

Daily Weather History Graph

Search for Another Location

Airport or City:

Astronomy

Dec. 13, 2012 Rise Set
Actual Time 7:44 AM MST 5:00 PM MST
Civil Twilight 7:13 AM MST 5:31 PM MST
Nautical Twilight 6:38 AM MST 6:06 PM MST
Astronomical Twilight 6:05 AM MST 6:39 PM MST
Moon 7:56 AM MST (12/13) 5:47 PM MST (12/13)
Length of Visible Light 10h 18m
Length of Day
9h 16m
New Moon, 0% of the Moon is Illuminated
Dec 13
New Moon
Dec 19
First Quarter
Dec 28
Full
Jan 4
Last Quarter
Jan 11
New

Hourly Weather History & Observations

Time (MST) Temp. Windchill Dew Point Humidity Pressure Visibility Wind Dir Wind Speed Gust Speed Precip Events Conditions
12:53 AM 45.0 °F 37.9 °F 21.9 °F 40% 29.74 in 10.0 mi SSE 16.1 mph - N/A   Mostly Cloudy
1:53 AM 44.1 °F 36.8 °F 21.9 °F 42% 29.75 in 10.0 mi SSE 16.1 mph - N/A   Mostly Cloudy
2:53 AM 43.0 °F 36.0 °F 21.9 °F 43% 29.76 in 10.0 mi ESE 13.8 mph - N/A   Overcast
3:53 AM 44.1 °F 37.7 °F 21.9 °F 42% 29.77 in 10.0 mi SE 12.7 mph - N/A   Mostly Cloudy
4:53 AM 45.0 °F 38.9 °F 21.0 °F 39% 29.77 in 10.0 mi SSE 12.7 mph - N/A   Overcast
5:53 AM 45.0 °F 39.3 °F 21.9 °F 40% 29.78 in 10.0 mi SSE 11.5 mph - N/A   Mostly Cloudy
6:53 AM 46.9 °F - 21.0 °F 36% 29.79 in 10.0 mi South 17.3 mph 23.0 mph N/A   Overcast
7:53 AM 46.0 °F 41.0 °F 24.1 °F 42% 29.81 in 10.0 mi SSE 10.4 mph - N/A   Overcast
8:53 AM 48.0 °F - 24.1 °F 39% 29.81 in 10.0 mi South 9.2 mph - N/A   Mostly Cloudy
9:53 AM 48.0 °F - 25.0 °F 41% 29.81 in 10.0 mi SSE 13.8 mph - N/A   Mostly Cloudy
10:53 AM 48.0 °F - 25.0 °F 41% 29.81 in 10.0 mi SE 10.4 mph - N/A   Mostly Cloudy
11:53 AM 50.0 °F - 23.0 °F 35% 29.79 in 10.0 mi ESE 10.4 mph - N/A   Overcast
12:53 PM 51.1 °F - 24.1 °F 35% 29.77 in 10.0 mi SSE 9.2 mph - N/A   Overcast
1:53 PM 53.1 °F - 21.0 °F 29% 29.75 in 10.0 mi South 12.7 mph - N/A   Mostly Cloudy
2:53 PM 53.1 °F - 21.0 °F 29% 29.74 in 10.0 mi SSW 10.4 mph - N/A   Mostly Cloudy
4:53 PM 50.0 °F - 21.2 °F 32% 29.79 in 10.0 mi South 4.6 mph - N/A   Mostly Cloudy
5:53 PM 48.2 °F - 23.0 °F 37% 29.79 in 10.0 mi SE 5.8 mph - N/A   Mostly Cloudy
6:53 PM 46.9 °F - 21.9 °F 37% 29.75 in 10.0 mi South 8.1 mph - N/A   Mostly Cloudy
7:53 PM 45.0 °F 40.6 °F 21.9 °F 40% 29.76 in 10.0 mi SSE 8.1 mph - N/A   Mostly Cloudy
8:53 PM 44.1 °F 39.5 °F 21.0 °F 40% 29.75 in 10.0 mi South 8.1 mph - N/A   Scattered Clouds
9:53 PM 43.0 °F 37.7 °F 21.9 °F 43% 29.76 in 10.0 mi SE 9.2 mph - N/A   Scattered Clouds
10:53 PM 41.0 °F 36.4 °F 21.2 °F 45% 29.79 in 10.0 mi SSE 6.9 mph - N/A   Mostly Cloudy
11:53 PM 42.1 °F 36.6 °F 21.9 °F 45% 29.72 in 10.0 mi SSE 9.2 mph - N/A   Mostly Cloudy